Orbital Elements at Epoch 2459000.5 (2020-May-31.0) TDB
Reference: JPL 11 (heliocentric ecliptic J2000)
Element | Value | Uncertainty (1-sigma) | Units |
e | .04688890428891255 | 1.1464e-07 | |
a | 1.88687565194296 | 1.9168e-08 | au |
q | 1.798402120093927 | 2.2672e-07 | au |
i | 20.78486499758286 | 9.1908e-06 | deg |
node | 359.0088231873763 | 2.0354e-05 | deg |
peri | 150.313008457833 | 9.2571e-05 | deg |
M | 345.2551914753703 | 9.9366e-05 | deg |
tp | 2459039.274837277880 (2020-Jul-08.77483728) | 0.00026169 | TDB |
period | 946.70211530517 2.59 | 1.4426e-05 3.95e-08 | d yr |
n | .3802674507428916 | 5.7946e-09 | deg/d |
Q | 1.975349183791993 | 2.0067e-08 | au |
|
| | Orbit Determination Parameters
Additional Information
|